Wind_Speed
25 25 24 23 20 18 16 15 14 16 16 14 14 15 14 14 14 14 16 17 18 22 25 24 28 31 34 35 33 31 31 33 33 28 24 25 21 27 25 31 32 33 32 32 32 34 36 36 36 35 36 36 39 44
27 25 23 21 19 17 15 15 15 14 14 15 15 15 14 14 14 14 14 15 16 18 20 20 25 28 28 31 29 29 31 33 34 26 23 25 23 24 26 32 35 35 37 37 36 38 38 34 37 38 38 43 46 46
25 23 21 19 18 18 18 18 18 17 15 15 14 15 15 14 14 14 15 16 17 17 16 17 17 17 21 23 22 25 28 30 29 25 24 26 25 24 27 32 36 40 39 38 37 37 35 32 32 35 40 43 46 48
23 21 21 19 18 17 17 16 16 15 15 15 13 15 16 15 14 15 16 17 18 18 17 17 18 20 19 19 18 19 23 23 22 22 24 25 23 27 30 30 31 34 40 41 35 32 31 31 32 33 37 42 46 50
21 19 18 16 14 13 13 13 13 13 14 14 14 14 16 17 16 15 16 17 18 19 19 19 21 21 23 22 23 24 24 23 24 25 26 26 25 31 29 26 29 30 32 32 33 30 28 30 35 40 43 46 48 52
20 18 15 14 12 11 10 9 12 13 14 14 14 14 14 16 17 18 18 17 18 18 18 18 17 19 20 21 23 23 23 23 25 26 27 28 29 29 28 26 26 28 28 28 29 27 28 31 33 37 42 45 45 45
20 18 16 15 13 12 10 8 8 8 9 11 12 14 14 14 15 17 18 18 18 18 18 19 20 18 19 21 23 24 25 26 25 28 27 28 31 30 27 25 27 26 24 24 27 28 30 33 36 38 37 35 35 34
21 19 18 16 14 12 11 10 8 8 9 9 9 9 11 12 14 15 17 19 18 18 19 20 22 20 20 21 22 23 25 25 24 24 23 24 27 27 25 24 25 25 25 28 28 26 28 30 33 32 32 35 34 32
22 21 19 18 16 14 13 13 13 13 13 12 12 12 13 13 13 11 13 14 16 17 19 21 24 24 26 23 21 22 22 23 24 24 26 26 27 27 26 25 24 24 27 29 26 26 28 30 29 29 31 32 30 31
24 22 21 20 20 18 17 17 17 17 17 17 15 15 14 13 14 14 12 12 12 13 14 19 24 23 23 23 23 20 21 21 22 24 27 26 27 28 25 24 23 25 28 27 26 26 28 28 28 31 32 29 30 32
29 26 24 23 22 21 19 19 22 22 20 19 17 17 16 15 14 13 14 14 14 14 15 19 21 22 21 22 20 21 21 22 22 24 23 24 28 25 24 23 22 26 26 25 27 28 28 27 30 32 33 32 36 36
30 30 30 27 25 22 21 20 18 18 19 19 18 18 17 16 15 14 15 17 16 15 15 15 16 19 21 20 22 21 23 24 20 23 23 24 23 21 19 19 23 24 24 25 27 28 31 29 30 32 35 35 37 38
31 28 30 33 28 25 24 22 21 19 18 19 19 19 18 16 16 15 15 15 14 14 15 14 14 12 15 19 23 26 28 25 23 22 21 19 20 20 21 23 24 24 24 26 27 29 31 32 33 33 36 38 38 39
29 27 25 31 31 26 24 22 21 20 19 18 18 19 18 17 16 17 15 15 15 15 15 14 20 16 18 15 11 16 21 22 21 18 15 17 19 20 21 23 24 26 27 26 28 29 29 30 34 37 37 40 38 36
24 25 23 23 31 29 24 22 21 21 20 20 19 20 21 19 18 19 18 16 16 16 16 17 19 18 19 13 10 13 14 19 20 15 15 15 16 19 21 24 28 25 24 25 25 26 29 32 34 35 35 36 38 38
22 19 18 20 20 27 27 27 22 22 20 21 21 23 23 21 21 20 19 18 18 17 18 18 18 14 26 17 19 17 17 21 19 19 19 20 22 19 22 21 19 20 20 21 23 25 28 30 31 29 29 29 28 22
16 17 23 24 24 24 25 25 24 21 19 21 25 24 24 21 20 21 21 20 21 20 18 18 17 22 22 16 10 12 15 19 19 18 18 13 16 15 15 18 18 17 18 21 23 24 26 26 24 23 24 27 27 11
18 23 25 22 20 18 16 18 21 21 21 26 27 29 25 23 22 22 24 22 21 21 20 18 19 20 15 11 9 9 10 16 16 9 11 12 10 13 15 15 14 15 18 20 21 22 23 19 18 19 19 18 17 6
27 28 23 18 15 17 20 21 23 21 24 27 25 28 27 25 23 24 24 24 21 21 21 20 21 18 20 19 19 12 8 10 6 9 13 13 12 11 11 12 13 16 16 17 20 20 18 14 15 14 17 14 2 9
25 18 16 18 19 20 21 21 23 23 23 26 26 25 24 26 26 25 24 25 23 22 22 20 21 22 25 22 17 12 7 10 14 15 12 11 12 12 11 12 13 13 14 16 16 16 12 13 12 9 3 9 10 7
10 15 18 19 19 20 21 22 24 24 23 25 26 21 21 23 24 23 22 22 21 17 16 17 24 28 27 21 22 21 16 13 10 9 10 9 10 10 10 11 12 13 13 14 15 10 8 10 11 4 7 8 9 8
14 16 17 18 19 20 22 24 23 22 19 21 22 19 19 20 19 20 16 14 15 18 19 21 23 23 23 23 22 23 21 14 12 12 9 8 8 8 6 6 8 9 10 10 10 6 4 7 7 7 8 11 9 8
15 16 17 17 17 16 18 19 20 19 17 18 17 17 17 16 16 14 14 17 18 16 15 16 17 18 19 20 20 20 17 15 13 11 8 4 7 4 5 5 6 7 7 7 8 8 3 2 4 2 3 3 3 3
17 18 19 19 19 19 18 17 16 15 15 13 11 12 13 11 11 11 12 13 12 13 14 15 17 17 16 18 18 21 19 18 22 16 8 7 7 4 3 4 5 5 5 5 4 7 8 3 3 3 2 1 1 0
20 20 20 20 20 19 18 15 13 11 11 9 10 9 8 7 8 8 9 9 9 11 14 14 13 13 14 17 18 18 17 14 17 11 10 7 4 3 4 3 2 3 4 4 2 2 3 4 3 5 4 2 2 5
24 24 22 20 15 12 9 9 9 7 7 6 3 4 5 4 6 9 9 9 10 10 11 11 11 13 13 12 15 19 14 12 15 14 11 6 3 4 4 3 3 3 4 5 5 4 4 3 0 1 2 2 3 5
20 14 9 5 5 4 3 4 4 3 2 5 5 4 3 3 5 8 9 7 7 9 8 13 11 11 13 16 16 18 14 14 16 14 9 6 4 3 3 4 4 5 6 4 3 5 4 2 3 3 1 3 6 7
7 1 3 2 3 3 2 0 1 3 5 5 4 4 3 0 3 7 5 6 6 7 3 12 10 12 16 17 15 17 18 16 15 12 9 5 3 1 2 4 2 2 4 4 2 3 4 4 4 2 2 1 3 2
4 4 4 6 5 3 4 5 5 4 3 2 5 11 6 4 2 8 8 6 8 10 10 5 8 14 21 20 19 18 18 18 16 12 9 3 3 4 7 7 4 2 5 7 5 3 6 8 6 7 7 5 3 3
3 4 5 5 6 6 6 4 3 2 2 4 5 5 15 10 6 9 5 6 7 8 8 5 14 14 23 19 18 17 16 17 14 11 8 7 5 6 8 4 4 5 8 14 9 9 7 8 9 9 10 9 8 4
7 7 7 7 5 3 1 1 2 2 2 3 2 2 3 6 11 11 8 6 7 11 11 13 19 21 21 21 20 16 16 16 12 11 11 8 6 6 7 5 4 1 2 4 8 12 12 8 9 9 8 7 6 3
4 4 5 5 6 6 7 7 6 6 5 4 2 3 4 2 1 4 10 10 8 8 10 16 20 22 22 21 19 19 19 16 14 11 11 8 8 8 6 7 7 6 9 11 13 14 13 12 9 6 6 6 8 5
6 4 6 8 10 12 11 10 10 11 14 10 5 3 4 2 2 4 4 5 8 11 14 21 21 14 21 19 27 21 16 13 8 9 6 5 6 8 9 11 10 9 10 11 13 14 16 23 24 22 13 6 4 3
Wind_Direction
306 306 300 296 292 288 287 288 288 277 275 277 277 268 263 261 257 252 252 250 243 240 243 238 238 240 242 243 245 250 253 253 252 254 261 262 252 242 237 238 238 236 231 234 236 243 248 254 259 260 261 270 278 278
309 304 298 294 288 284 282 281 281 282 277 280 269 262 263 259 256 254 251 247 245 244 245 241 238 242 247 251 250 249 251 253 254 251 246 247 239 237 241 235 237 235 235 238 244 249 252 257 258 263 267 278 279 280
312 306 299 294 288 283 279 277 276 274 274 271 268 261 257 255 252 252 251 249 247 247 245 244 253 255 252 253 249 246 246 250 255 255 251 247 246 238 233 235 240 241 251 255 260 261 268 272 272 274 278 279 279 276
311 307 299 293 290 288 283 277 275 269 269 268 270 264 256 255 255 252 250 249 250 251 250 246 246 245 246 248 246 241 243 247 248 243 239 240 238 237 235 234 237 242 248 255 263 266 268 275 281 280 274 277 287 292
307 304 300 297 294 294 288 277 276 268 269 266 267 271 261 254 254 255 252 253 255 254 254 252 251 251 250 246 247 245 246 246 244 242 244 246 241 245 246 245 243 246 249 251 258 263 277 280 280 289 295 295 293 292
299 299 295 299 300 296 290 288 280 276 271 269 268 267 266 261 254 255 259 258 260 259 256 256 248 247 247 253 249 249 248 247 247 248 246 247 248 249 251 250 247 247 249 255 263 267 260 273 285 288 288 290 291 293
292 290 283 287 290 294 297 299 298 292 287 278 275 266 264 263 258 257 261 263 263 263 261 260 256 250 244 245 252 255 254 251 250 248 246 246 251 252 251 251 253 255 258 261 261 270 282 286 289 289 291 288 287 288
287 283 275 275 282 285 289 291 288 292 299 302 297 284 276 271 266 265 262 259 263 266 267 268 266 264 262 260 262 259 253 249 247 247 243 243 246 252 252 251 254 258 265 262 270 279 282 287 289 288 284 284 287 293
278 278 268 266 270 275 281 283 278 278 284 290 292 289 282 279 281 272 265 262 264 267 267 271 272 267 262 263 262 259 252 253 247 246 244 243 247 254 257 256 253 258 258 264 272 277 285 285 284 283 285 288 294 294
265 266 263 262 264 270 277 282 284 282 281 281 281 285 287 282 281 282 276 271 269 266 264 262 270 273 268 266 262 264 253 247 248 245 248 252 253 252 255 260 261 257 259 266 276 285 284 283 283 286 288 290 288 291
274 253 258 259 262 266 271 279 285 282 281 279 277 279 283 282 282 282 284 275 267 266 266 266 275 267 267 270 271 264 269 261 252 254 253 249 252 257 261 261 256 253 260 273 282 281 278 277 279 284 288 289 287 289
275 272 250 256 257 262 268 277 282 284 281 277 276 276 282 284 285 287 282 282 282 275 272 276 280 277 271 262 265 266 263 265 260 257 258 259 263 265 263 258 252 258 270 274 276 279 280 279 282 288 291 293 291 291
277 274 277 250 255 262 269 270 273 279 278 274 270 273 279 282 287 292 299 293 285 280 267 263 275 278 277 271 272 273 271 263 262 260 260 264 267 263 258 253 258 268 276 282 281 280 281 284 288 294 296 295 294 293
273 277 278 274 254 260 267 265 264 272 275 278 270 269 272 274 279 289 298 293 285 280 274 246 254 252 255 272 288 269 260 260 258 265 266 258 253 254 256 260 265 279 285 281 280 282 285 292 298 298 298 297 295 292
269 277 283 289 276 255 258 262 263 270 273 272 272 271 271 274 276 284 288 295 288 282 267 254 251 235 233 250 288 273 267 265 263 258 253 249 246 248 255 266 278 280 279 281 284 289 295 298 298 300 303 298 298 294
280 283 286 287 282 273 265 255 259 266 270 271 272 268 269 274 274 274 277 281 283 275 271 257 252 271 215 255 285 270 269 279 278 260 251 249 251 264 275 274 278 278 283 286 291 296 298 298 305 306 308 312 323 307
271 281 293 290 278 272 265 250 252 262 267 273 269 269 270 272 270 270 270 275 281 277 267 252 249 222 250 273 281 269 256 271 277 260 270 260 275 268 265 273 277 283 288 294 297 298 301 307 309 307 313 315 329 316
277 301 295 285 275 269 261 261 264 265 266 266 269 274 274 271 268 266 264 268 270 270 262 242 240 234 236 241 284 278 273 279 278 258 252 262 258 265 268 275 283 295 302 302 303 307 312 313 312 321 340 336 332 340
286 292 279 264 267 274 274 276 277 274 269 267 268 268 273 272 265 262 265 266 264 262 253 243 233 231 224 246 272 244 263 230 248 277 259 251 266 276 279 280 298 308 311 310 313 317 322 322 319 318 340 1 113 127
280 265 267 275 279 281 283 282 278 276 270 272 270 270 270 269 267 262 259 260 256 251 246 248 230 227 229 246 246 213 236 262 283 278 257 266 278 279 282 302 316 318 318 319 325 332 333 337 333 342 50 18 84 137
272 276 281 284 283 284 284 281 276 278 277 275 275 274 269 264 260 257 253 254 257 254 246 228 220 217 223 234 215 234 260 270 242 232 243 240 257 270 300 320 317 315 327 340 340 327 329 2 14 15 73 90 131 130
283 285 287 288 290 290 287 283 283 282 281 278 280 279 269 264 259 252 248 246 239 232 226 225 220 220 222 224 233 239 242 236 230 233 223 229 257 283 300 312 311 322 343 345 342 343 301 348 21 53 65 85 95 104
293 293 295 296 293 290 284 287 286 285 281 278 277 272 266 262 257 249 235 229 230 231 227 225 219 220 221 224 225 222 226 217 209 214 221 225 253 268 305 320 309 319 337 332 5 13 4 333 34 2 50 64 61 27
297 296 295 293 289 288 292 295 294 287 279 278 275 271 265 258 245 230 227 227 220 214 216 216 213 216 227 230 219 218 219 219 221 224 244 224 240 269 296 298 305 309 312 323 12 28 48 35 343 319 313 314 268 220
299 299 295 288 286 288 285 283 284 277 284 282 281 267 244 220 204 198 208 209 215 219 210 210 220 224 216 212 217 222 201 207 196 201 199 199 232 277 272 273 266 287 293 252 250 68 51 62 69 67 43 355 223 172
304 300 290 282 279 279 269 268 281 285 290 290 224 167 160 194 206 200 195 196 207 217 223 234 223 215 211 206 207 182 164 180 184 183 185 191 214 246 262 275 273 286 301 275 220 187 181 166 292 200 133 170 195 198
309 310 306 288 266 229 230 263 277 298 144 135 154 162 198 230 214 198 197 198 224 231 225 200 199 199 203 191 181 187 196 193 187 181 189 216 252 268 273 277 275 313 336 313 267 240 229 244 307 300 273 256 236 230
328 15 103 123 144 149 162 271 106 144 153 176 198 151 225 172 225 193 201 212 218 152 169 174 159 186 184 173 181 183 187 193 196 200 211 229 271 140 110 241 243 296 319 315 326 316 291 257 246 255 218 165 125 186
25 66 106 118 120 112 112 116 107 91 79 24 210 194 212 222 145 154 200 181 173 185 173 153 170 187 179 178 180 185 193 200 207 215 230 237 213 193 187 191 201 250 265 273 273 258 274 277 264 248 254 249 234 268
53 76 89 98 109 117 126 119 100 68 21 19 31 186 208 211 217 201 190 191 184 173 193 214 190 191 182 171 183 194 203 211 208 217 227 221 218 221 232 250 353 312 287 238 258 256 275 282 282 279 269 263 258 255
84 91 87 81 79 81 90 328 320 319 306 305 289 242 214 223 222 210 195 176 176 181 163 168 152 160 175 186 191 197 206 212 217 218 217 212 217 236 249 236 224 293 316 314 252 259 248 267 284 280 273 277 271 255
108 97 59 61 77 84 87 74 55 35 12 344 303 257 224 231 221 188 203 198 179 193 186 187 190 182 191 204 207 210 209 203 203 208 216 185 211 234 242 267 289 288 279 264 285 253 238 267 273 262 266 287 303 315
178 122 94 97 94 88 84 78 65 38 33 32 43 85 117 128 141 133 170 199 204 192 194 202 196 201 206 209 201 204 212 214 214 223 200 219 238 256 260 265 271 273 272 272 263 266 261 279 271 257 255 246 255 291
Height
5794 5791 5789 5787 5785 5784 5782 5782 5781 5780 5780 5779 5779 5778 5778 5778 5778 5779 5781 5783 5784 5785 5786 5790 5792 5794 5795 5798 5800 5804 5805 5806 5807 5810 5813 5814 5818 5817 5820 5820 5821 5823 5824 5824 5825 5825 5825 5827 5830 5832 5831 5829 5828 5825
5788 5784 5782 5779 5779 5778 5777 5776 5775 5775 5774 5774 5773 5773 5773 5773 5774 5774 5776 5777 5779 5779 5781 5783 5784 5785 5788 5789 5793 5795 5796 5796 5797 5802 5805 5806 5809 5810 5813 5814 5814 5814 5815 5817 5820 5818 5818 5821 5823 5824 5823 5821 5817 5813
5782 5779 5776 5773 5772 5771 5770 5770 5770 5769 5769 5769 5769 5769 5768 5769 5769 5770 5771 5772 5773 5775 5777 5777 5780 5781 5781 5782 5784 5787 5787 5789 5792 5796 5797 5798 5801 5805 5805 5806 5806 5806 5807 5809 5811 5811 5812 5814 5816 5814 5811 5808 5805 5800
5777 5774 5772 5769 5766 5765 5764 5763 5763 5763 5763 5763 5764 5764 5764 5764 5765 5766 5766 5767 5768 5770 5772 5774 5773 5774 5775 5777 5778 5779 5780 5782 5785 5787 5788 5789 5794 5794 5795 5797 5799 5801 5802 5800 5803 5803 5805 5805 5804 5802 5798 5795 5792 5788
5771 5769 5767 5765 5762 5760 5759 5758 5758 5758 5758 5758 5758 5759 5759 5760 5760 5761 5761 5762 5763 5766 5766 5767 5767 5768 5768 5770 5771 5772 5774 5776 5777 5779 5781 5783 5786 5784 5788 5792 5792 5792 5793 5796 5796 5798 5798 5794 5790 5786 5784 5781 5778 5774
5767 5764 5763 5762 5759 5757 5755 5753 5753 5753 5753 5753 5753 5753 5754 5755 5755 5755 5756 5757 5758 5759 5760 5761 5761 5761 5762 5762 5764 5765 5767 5768 5769 5771 5773 5775 5775 5778 5780 5782 5783 5785 5787 5788 5789 5789 5787 5786 5784 5780 5776 5772 5768 5763
5761 5760 5758 5757 5756 5754 5752 5750 5749 5749 5749 5749 5748 5748 5749 5749 5749 5749 5751 5751 5752 5753 5754 5755 5754 5756 5757 5758 5758 5759 5760 5760 5761 5762 5765 5767 5767 5768 5771 5774 5774 5776 5779 5780 5778 5776 5775 5773 5771 5768 5766 5764 5761 5758
5755 5754 5753 5752 5751 5750 5749 5748 5746 5746 5746 5746 5745 5744 5744 5743 5743 5743 5743 5744 5745 5746 5747 5747 5748 5750 5751 5750 5750 5752 5752 5753 5754 5755 5757 5759 5759 5760 5763 5766 5768 5769 5769 5767 5767 5767 5766 5762 5760 5759 5756 5753 5751 5748
5747 5747 5747 5746 5746 5745 5744 5743 5743 5742 5742 5742 5741 5740 5739 5739 5738 5738 5737 5738 5738 5741 5740 5740 5739 5742 5742 5742 5744 5745 5746 5746 5747 5748 5749 5751 5751 5752 5755 5758 5760 5761 5758 5756 5758 5756 5754 5753 5751 5750 5747 5745 5743 5740
5738 5738 5739 5739 5739 5739 5739 5738 5738 5737 5737 5736 5736 5735 5734 5734 5733 5734 5733 5732 5733 5733 5733 5732 5731 5731 5732 5733 5736 5737 5737 5738 5740 5742 5740 5743 5743 5744 5748 5750 5751 5750 5749 5749 5746 5747 5746 5743 5742 5740 5739 5738 5734 5732
5729 5729 5730 5730 5731 5732 5732 5732 5731 5730 5730 5730 5730 5730 5730 5728 5728 5728 5727 5727 5727 5727 5726 5725 5724 5724 5725 5726 5727 5729 5729 5730 5732 5732 5735 5735 5734 5739 5742 5743 5743 5742 5741 5739 5739 5738 5737 5736 5734 5732 5730 5728 5724 5723
5719 5720 5720 5721 5722 5723 5724 5725 5724 5724 5723 5723 5723 5723 5723 5723 5723 5723 5722 5721 5721 5721 5720 5719 5719 5718 5718 5720 5720 5722 5722 5722 5726 5726 5727 5728 5730 5732 5734 5735 5734 5733 5733 5732 5731 5729 5726 5726 5726 5723 5719 5718 5716 5713
5708 5710 5711 5711 5713 5714 5715 5716 5717 5717 5716 5716 5716 5716 5716 5717 5717 5716 5716 5715 5715 5714 5713 5713 5713 5713 5713 5714 5715 5715 5714 5716 5717 5719 5720 5724 5724 5724 5725 5725 5725 5726 5726 5724 5721 5719 5719 5717 5715 5713 5710 5707 5704 5702
5699 5700 5702 5703 5704 5706 5706 5707 5708 5709 5709 5709 5709 5709 5709 5710 5709 5709 5710 5709 5708 5707 5707 5707 5707 5706 5709 5709 5708 5708 5708 5709 5710 5713 5716 5717 5717 5717 5718 5717 5717 5717 5717 5715 5714 5712 5710 5708 5705 5702 5700 5696 5693 5690
5691 5692 5694 5695 5695 5696 5697 5698 5700 5701 5701 5702 5702 5701 5701 5703 5703 5702 5702 5702 5701 5700 5699 5699 5699 5701 5702 5703 5704 5702 5703 5703 5705 5708 5709 5710 5709 5709 5710 5711 5711 5710 5709 5708 5706 5704 5701 5698 5695 5692 5688 5683 5682 5677
5684 5685 5686 5686 5685 5687 5688 5689 5691 5692 5693 5694 5694 5693 5693 5694 5695 5695 5695 5695 5694 5693 5692 5692 5693 5692 5694 5697 5698 5696 5698 5698 5700 5700 5701 5702 5702 5704 5705 5705 5704 5703 5702 5700 5698 5696 5693 5690 5686 5682 5678 5673 5669 5664
5678 5679 5679 5677 5678 5678 5678 5679 5682 5684 5686 5685 5683 5684 5684 5686 5687 5686 5686 5686 5685 5685 5685 5686 5687 5689 5691 5691 5691 5692 5693 5693 5693 5693 5694 5695 5697 5697 5698 5697 5697 5697 5695 5693 5691 5689 5686 5682 5679 5674 5670 5665 5660 5657
5671 5672 5671 5670 5670 5670 5671 5672 5674 5676 5677 5675 5675 5673 5675 5677 5678 5678 5677 5678 5679 5678 5678 5679 5680 5681 5684 5686 5687 5688 5688 5688 5688 5689 5691 5691 5691 5691 5691 5691 5691 5690 5689 5687 5684 5682 5679 5676 5673 5669 5666 5661 5657 5654
5664 5664 5664 5664 5664 5664 5664 5665 5665 5667 5667 5665 5667 5665 5666 5667 5668 5668 5668 5668 5669 5669 5670 5672 5674 5677 5680 5682 5683 5684 5684 5685 5686 5686 5687 5687 5687 5687 5687 5687 5686 5685 5683 5681 5678 5676 5673 5671 5668 5666 5663 5659 5657 5657
5656 5657 5657 5657 5657 5657 5657 5658 5656 5657 5657 5656 5656 5657 5658 5657 5657 5659 5658 5659 5660 5660 5661 5665 5670 5671 5673 5676 5678 5680 5681 5681 5682 5682 5682 5683 5684 5685 5684 5683 5681 5680 5679 5677 5675 5672 5670 5668 5665 5664 5663 5661 5658 5660
5650 5651 5650 5650 5650 5649 5649 5648 5647 5648 5648 5646 5646 5648 5647 5647 5647 5649 5649 5649 5652 5654 5656 5658 5661 5664 5667 5671 5673 5673 5677 5678 5679 5679 5680 5681 5681 5681 5680 5679 5678 5677 5676 5673 5671 5669 5668 5667 5664 5662 5662 5661 5661 5662
5645 5644 5643 5643 5642 5642 5641 5639 5639 5639 5640 5638 5638 5639 5638 5638 5639 5640 5642 5644 5645 5646 5648 5651 5655 5657 5661 5664 5667 5669 5672 5674 5675 5677 5677 5678 5678 5677 5677 5677 5676 5675 5674 5673 5671 5668 5667 5666 5666 5665 5664 5663 5664 5665
5640 5639 5638 5637 5636 5635 5634 5632 5632 5632 5632 5632 5632 5631 5631 5632 5633 5635 5635 5636 5638 5641 5644 5647 5649 5652 5656 5658 5661 5664 5667 5669 5672 5673 5675 5674 5676 5674 5673 5673 5673 5672 5672 5672 5670 5667 5666 5666 5666 5666 5665 5665 5666 5666
5635 5633 5632 5631 5629 5628 5627 5627 5626 5627 5627 5627 5626 5626 5626 5627 5628 5629 5631 5633 5635 5637 5640 5642 5645 5648 5651 5654 5656 5659 5662 5664 5667 5669 5671 5673 5673 5672 5672 5672 5671 5670 5670 5670 5669 5668 5666 5665 5665 5665 5665 5665 5665 5665
5629 5627 5626 5624 5622 5623 5622 5622 5623 5623 5623 5622 5622 5622 5622 5624 5625 5627 5628 5631 5633 5634 5637 5640 5642 5644 5646 5648 5651 5654 5658 5660 5663 5666 5668 5669 5670 5669 5669 5670 5669 5668 5668 5668 5667 5667 5667 5667 5666 5664 5664 5664 5665 5666
5621 5620 5617 5617 5617 5617 5617 5618 5619 5619 5619 5619 5619 5620 5621 5622 5624 5625 5627 5629 5631 5633 5635 5637 5639 5641 5643 5646 5648 5652 5657 5660 5662 5664 5666 5667 5667 5667 5667 5667 5667 5667 5666 5665 5666 5666 5667 5667 5667 5666 5665 5666 5666 5666
5615 5612 5611 5612 5612 5613 5615 5616 5617 5617 5617 5618 5619 5620 5621 5621 5622 5624 5625 5627 5629 5631 5632 5634 5636 5638 5641 5644 5647 5651 5656 5658 5660 5661 5663 5663 5664 5665 5665 5666 5666 5667 5667 5666 5666 5666 5665 5665 5665 5665 5663 5663 5665 5665
5612 5610 5610 5611 5611 5612 5614 5615 5615 5616 5617 5618 5619 5619 5620 5620 5621 5623 5624 5626 5627 5630 5630 5632 5635 5637 5640 5643 5647 5650 5653 5655 5658 5660 5661 5663 5664 5663 5663 5665 5665 5664 5664 5664 5664 5664 5665 5665 5664 5663 5662 5661 5661 5662
5612 5611 5611 5612 5612 5613 5614 5615 5616 5616 5617 5617 5617 5618 5619 5620 5621 5622 5623 5625 5627 5629 5631 5632 5634 5636 5639 5642 5646 5649 5651 5654 5657 5658 5660 5660 5660 5661 5661 5662 5662 5662 5663 5663 5663 5662 5663 5664 5663 5663 5663 5661 5659 5659
5614 5613 5613 5614 5614 5614 5616 5616 5617 5617 5617 5617 5616 5615 5617 5619 5620 5621 5623 5625 5628 5629 5630 5631 5633 5635 5639 5642 5645 5648 5650 5651 5653 5656 5657 5657 5657 5658 5658 5660 5661 5660 5659 5660 5661 5661 5662 5662 5661 5660 5659 5658 5658 5656
5615 5615 5616 5615 5616 5616 5616 5616 5616 5616 5616 5616 5616 5616 5615 5616 5618 5620 5622 5625 5627 5628 5629 5631 5632 5635 5639 5640 5643 5645 5646 5647 5649 5653 5654 5653 5653 5655 5657 5658 5659 5659 5659 5659 5659 5659 5660 5659 5659 5658 5657 5656 5656 5653
5617 5617 5618 5617 5617 5617 5617 5617 5616 5616 5615 5615 5615 5614 5615 5615 5616 5618 5620 5623 5625 5627 5628 5629 5631 5634 5637 5639 5641 5641 5642 5646 5647 5650 5651 5650 5651 5652 5654 5655 5656 5656 5657 5656 5656 5655 5654 5655 5656 5655 5654 5654 5654 5652
5617 5619 5619 5619 5620 5620 5620 5620 5619 5618 5616 5615 5614 5614 5615 5616 5617 5618 5619 5621 5624 5625 5625 5626 5628 5632 5635 5635 5635 5638 5642 5643 5646 5647 5648 5650 5650 5650 5652 5651 5651 5651 5652 5652 5651 5651 5651 5652 5652 5651 5651 5650 5650 5649